This is the latest recevied weather packets stored in our database for station/object G0TRT-13. If no packets are shown the sender has not sent any weather packets the latest 10 day(s).
| Time | Temp. | Humidity | Pressure | Rain* | Wind** | Luminosity | Snow |
|---|---|---|---|---|---|---|---|
| 1777553823 | 22.22° C | 36% | 1019.4 hPa | 0 mm | - | - | - |
| 1777553522 | 22.22° C | 36% | 1019.3 hPa | 0 mm | - | - | - |
| 1777553223 | 22.22° C | 37% | 1019.4 hPa | 0 mm | - | - | - |
| 1777552923 | 21.67° C | 37% | 1019.5 hPa | 0 mm | - | - | - |
| 1777552620 | 21.67° C | 36% | 1019.4 hPa | 0 mm | - | - | - |
| 1777552313 | 21.67° C | 37% | 1019.5 hPa | 0 mm | - | - | - |
| 1777552007 | 21.67° C | 40% | 1019.4 hPa | 0 mm | - | - | - |
| 1777551703 | 21.67° C | 38% | 1019.6 hPa | 0 mm | - | - | - |
| 1777551104 | 21.67° C | 39% | 1019.6 hPa | 0 mm | - | - | - |
| 1777550802 | 21.67° C | 38% | 1019.6 hPa | 0 mm | - | - | - |
| 1777550501 | 21.67° C | 38% | 1019.7 hPa | 0 mm | - | - | - |
| 1777550202 | 21.67° C | 39% | 1019.7 hPa | 0 mm | - | - | - |
| 1777549899 | 21.11° C | 41% | 1019.6 hPa | 0 mm | - | - | - |
| 1777549599 | 21.11° C | 40% | 1019.6 hPa | 0 mm | - | - | - |
| 1777549299 | 21.11° C | 39% | 1019.8 hPa | 0 mm | - | - | - |
| 1777548998 | 20.56° C | 41% | 1019.7 hPa | 0 mm | - | - | - |
| 1777548700 | 20.56° C | 39% | 1019.7 hPa | 0 mm | - | - | - |
| 1777548397 | 20.56° C | 40% | 1019.6 hPa | 0 mm | - | - | - |
| 1777548098 | 20.56° C | 44% | 1019.8 hPa | 0 mm | - | - | - |
| 1777547795 | 20° C | 45% | 1019.8 hPa | 0 mm | - | - | - |
| 1777547496 | 20° C | 44% | 1019.8 hPa | 0 mm | - | - | - |
| 1777547206 | 20° C | 45% | 1019.8 hPa | 0 mm | - | - | - |
| 1777546893 | 20° C | 45% | 1019.8 hPa | 0 mm | - | - | - |
| 1777546593 | 19.44° C | 47% | 1019.8 hPa | 0 mm | - | - | - |
| 1777546294 | 19.44° C | 47% | 1019.8 hPa | 0 mm | - | - | - |
* Rain latest hour (hover to see other rain measurements)
** Current wind speed in m/s (hover to see current wind gust speed)